CAPE
24 12 8 8 6 7 3 5 7 3 6 19 31 16 16 10 16 10 1 13 3 3 0 1 0 1 5 3 1 1 12 7 4 13 1 0 0 0 0 0 0 0 0 0 0 0 0 0 0 0 0 0 0 0
17 10 14 12 8 5 6 4 13 9 6 6 15 7 24 18 16 5 0 10 7 16 0 0 0 0 0 0 0 1 1 9 13 6 4 4 0 0 0 0 0 0 0 0 0 0 0 0 0 0 0 0 0 0
25 22 16 14 11 10 21 13 8 5 4 2 14 19 46 70 50 31 0 2 0 3 3 0 0 0 0 0 0 1 2 0 2 1 2 4 8 0 0 0 0 0 0 0 0 0 0 0 0 0 0 0 0 0
17 14 19 23 21 21 19 16 15 8 2 0 6 4 16 11 57 40 3 0 1 2 1 1 0 0 0 0 0 0 0 0 0 0 2 1 6 7 0 0 0 0 0 0 0 0 0 0 0 0 0 0 0 0
18 32 29 21 11 10 13 20 20 12 15 1 2 8 3 3 18 72 30 1 0 1 10 8 0 0 0 0 0 0 0 0 1 1 0 0 8 9 5 0 0 0 0 0 0 0 0 0 0 0 0 0 0 0
16 19 30 19 13 20 15 12 19 21 21 12 6 13 10 3 17 60 5 1 5 0 1 0 0 0 0 0 0 0 0 1 9 3 5 1 0 0 15 2 0 5 0 0 0 0 0 0 0 0 0 0 0 0
6 16 14 14 15 23 23 19 19 16 18 20 9 10 9 7 31 6 37 23 3 1 0 0 2 0 0 0 0 0 0 8 12 16 4 0 0 2 0 7 2 11 6 0 0 0 0 0 0 0 0 0 0 0
11 18 11 19 14 12 12 8 18 26 12 23 11 6 17 15 15 17 43 3 1 0 0 1 0 0 0 0 0 0 1 6 12 6 1 13 10 10 1 2 2 0 0 0 0 0 0 0 0 0 0 0 0 0
22 11 14 15 23 25 22 28 41 19 13 16 26 11 15 17 11 11 12 3 0 1 2 1 3 6 0 14 14 0 4 7 1 4 1 2 3 8 0 0 0 0 0 0 0 0 0 0 0 0 0 0 0 0
9 17 20 17 23 51 62 76 11 37 37 11 51 19 4 7 13 12 34 0 0 1 1 2 4 2 0 15 9 31 38 0 0 0 10 1 0 0 0 0 0 0 0 0 0 0 0 0 0 0 0 0 0 0
9 17 31 38 57 54 52 53 18 45 33 0 9 7 16 20 9 14 20 1 4 1 3 3 2 0 0 0 0 0 0 0 1 9 1 0 0 0 0 0 0 0 0 0 0 0 0 0 0 0 0 0 0 0
13 25 29 19 31 48 41 23 69 8 0 0 5 0 1 4 7 1 11 3 1 0 0 0 1 0 0 0 0 0 0 0 0 22 0 1 0 0 0 0 0 0 0 0 0 0 0 0 0 0 0 0 0 0
1 1 2 5 13 12 25 71 35 3 2 0 0 7 12 2 6 1 0 0 4 0 1 0 0 0 2 1 4 0 0 0 0 0 0 0 0 0 1 0 0 0 0 0 0 0 0 0 0 0 0 0 0 0
14 1 5 27 6 17 36 29 31 3 0 0 0 0 0 0 0 0 2 0 0 0 0 0 0 1 0 3 3 6 0 0 0 0 0 0 0 0 0 0 0 5 0 0 0 0 0 0 0 0 0 0 0 0
3 0 0 16 39 32 8 26 6 6 0 0 0 0 0 1 0 0 0 0 0 0 0 0 0 0 0 1 0 0 0 0 0 0 0 0 18 0 0 0 0 0 1 6 0 0 0 0 0 0 0 0 0 0
2 0 12 8 49 14 9 5 7 0 0 0 0 0 0 0 0 0 0 0 0 0 0 0 0 0 3 0 0 0 0 0 0 0 0 22 0 0 0 0 0 0 0 0 0 0 0 0 0 0 0 0 0 0
0 0 12 22 4 3 3 0 1 0 0 0 0 0 0 0 0 0 0 0 0 0 0 0 0 0 0 5 0 0 0 0 0 12 19 19 0 0 0 0 0 0 0 0 0 0 0 0 0 0 0 0 0 0
0 4 4 4 1 1 0 0 0 0 0 0 0 0 0 0 0 0 0 0 0 0 0 0 0 0 0 0 0 0 0 6 15 50 0 0 0 0 0 0 0 3 0 0 0 0 0 0 0 0 0 0 0 0
3 1 1 1 0 0 0 0 0 0 0 0 0 0 0 0 0 0 0 0 0 0 0 0 0 0 0 0 0 0 0 3 0 0 0 0 0 0 0 2 6 0 0 0 0 0 0 0 0 0 0 0 0 0
0 0 0 0 0 0 0 0 0 0 0 0 0 0 0 0 0 0 0 0 0 0 0 0 0 0 0 0 0 12 25 45 1 0 0 0 0 0 5 6 0 0 0 0 0 0 0 0 0 0 0 0 0 0
0 0 0 0 0 0 0 0 0 0 0 0 0 0 0 0 0 0 0 0 0 0 0 1 1 0 0 0 33 44 2 3 0 7 0 1 0 3 5 1 0 0 0 0 0 0 0 0 0 0 0 0 0 0
0 0 0 0 0 0 0 0 0 2 0 2 2 0 0 0 0 0 4 2 0 6 2 0 0 0 0 0 0 0 0 0 1 2 0 1 2 1 3 1 0 0 0 0 0 0 0 0 0 0 2 1 0 0
0 0 0 0 0 0 0 1 0 0 0 0 0 0 0 1 2 2 2 5 5 2 0 0 0 0 0 0 0 0 0 0 0 1 2 3 2 1 1 0 0 1 2 1 0 1 1 0 0 1 1 1 2 3
0 0 0 0 1 0 1 0 1 1 2 0 0 0 0 4 3 5 0 0 0 0 0 0 0 0 0 1 1 0 1 0 1 2 2 2 3 3 1 2 1 0 1 2 1 2 1 1 1 1 1 2 3 2
0 0 0 0 0 1 0 0 0 0 0 0 0 0 0 3 0 0 0 1 1 2 2 0 1 1 2 0 1 0 0 0 1 1 1 1 2 1 2 3 1 4 2 2 2 2 1 1 1 1 1 2 2 2
0 0 0 0 0 1 0 0 0 0 0 0 0 0 1 0 0 0 0 2 2 2 2 1 1 2 1 2 2 3 3 1 1 3 2 3 2 2 3 3 3 2 0 0 1 1 2 1 0 1 1 0 0 0
0 0 0 0 0 0 0 0 0 0 0 0 0 0 0 0 0 1 2 2 4 3 3 4 2 2 1 2 3 2 2 1 1 2 1 1 1 0 1 1 2 2 0 1 0 0 1 0 0 1 1 0 0 0
0 0 0 0 0 0 0 0 0 0 0 1 0 0 0 0 1 2 2 2 2 2 3 4 1 1 3 3 2 3 3 2 2 1 1 1 1 1 1 2 1 0 1 1 0 0 0 0 0 0 0 0 0 1
0 1 0 0 0 0 0 0 0 1 1 0 0 0 0 2 2 2 1 2 1 2 3 3 4 1 2 1 1 1 2 1 1 0 0 2 0 1 1 1 1 0 0 0 0 0 0 0 0 0 0 0 0 0
0 0 0 0 0 0 0 0 1 0 1 1 0 1 0 2 2 2 1 0 2 3 2 2 2 1 3 1 1 0 2 1 0 0 0 0 0 0 0 0 0 0 0 0 0 0 0 0 0 0 0 0 0 0
0 0 0 0 0 1 3 0 0 0 0 0 0 2 2 1 1 2 2 1 0 0 2 3 2 2 2 1 0 0 0 0 0 0 0 0 0 0 0 0 0 0 0 0 0 0 0 0 0 0 0 0 0 0
0 0 0 0 0 1 0 2 0 2 0 1 0 0 0 0 0 2 1 0 2 3 1 2 0 0 0 0 0 0 0 0 0 0 0 0 0 0 0 0 0 0 0 0 0 0 0 0 0 0 0 0 0 0
0 0 0 0 0 0 0 0 0 0 0 0 0 0 0 0 0 1 0 0 1 2 3 3 3 2 0 0 0 0 0 0 0 0 0 0 0 0 0 0 0 0 0 0 0 0 0 0 0 0 0 0 0 0
CIN
-0 -0 -0 -1 -0 -0 -0 -0 -0 -0 -4 -0 -1 0 0 0 -3 -0 0 -0 -1 -0 -0 -0 -0 -0 -0 0 0 0 -5 -2 -1 -0 -1 0 0 0 0 0 0 0 0 0 0 0 0 0 0 0 0 0 0 0
-0 -0 -0 -0 -0 -0 -1 -0 -0 -1 -0 -1 -2 -2 -2 -3 0 -1 0 0 0 0 -0 0 0 0 0 -0 0 0 0 -2 -1 -2 -2 -2 0 0 0 0 0 0 0 0 0 0 0 0 0 0 0 0 0 0
-1 -0 -0 -0 -0 -0 -0 -0 -0 -0 -3 -1 -0 -2 -4 -4 -8 -7 -0 0 0 0 0 0 0 0 0 0 0 -0 0 0 0 0 0 -6 -4 0 0 0 -1 0 0 0 0 0 0 0 0 0 0 0 0 0
-0 -0 -0 -0 -0 -0 -0 -0 -0 -0 -0 0 -0 -15 -3 -7 -4 -9 -6 0 -0 0 0 -4 0 0 0 0 0 0 -0 -0 0 0 0 -4 -1 -3 -1 -2 -2 0 0 0 0 0 0 0 0 0 0 0 0 0
-0 -0 -0 -0 -0 -0 -0 -0 -0 -0 -0 -0 -0 0 -0 -0 -8 -0 -1 0 0 0 -0 -0 0 0 0 0 0 0 0 -1 0 0 0 0 -2 -14 -7 0 0 0 0 0 0 0 0 0 0 0 0 0 0 0
-1 -4 0 -2 -0 0 -0 -0 -0 -1 -0 -0 -0 -0 -0 -0 -0 0 -1 -1 -1 0 0 -0 0 0 0 0 0 0 0 -1 -1 0 -0 -0 0 0 -3 -3 0 -3 0 0 0 0 0 0 0 0 0 0 0 0
0 0 -0 -0 -1 -0 0 -0 -0 0 -0 -0 -0 -0 -0 -1 -0 -2 -0 -0 0 0 0 -1 -1 0 0 0 0 0 0 -1 -0 -0 -0 0 0 -0 0 -1 -4 -5 -7 0 0 0 0 0 0 0 0 0 0 0
-2 0 0 -0 0 0 0 -0 -0 -0 0 -0 -0 -1 -1 -1 -1 -0 -1 0 0 0 0 -0 -1 0 0 0 0 0 -1 -1 -0 -0 -1 -1 -2 -1 0 -1 -1 0 0 0 0 0 0 0 0 0 0 0 0 0
0 0 0 0 0 0 -0 -7 -0 -2 0 0 -0 -0 -1 -1 -0 -1 -5 -2 0 -1 -0 -0 -2 -8 0 -29 -12 -0 -1 -0 -1 -1 -2 -0 -2 -0 0 0 0 0 0 0 0 0 0 0 0 0 0 0 0 0
0 0 -0 -2 -3 -0 -1 -0 -0 -0 0 0 -0 -1 -3 -8 -10 -9 -1 0 0 0 0 -1 -3 -5 -9 -24 -17 -7 -4 -0 -0 -0 -1 -3 0 0 0 0 -6 0 0 0 0 0 0 0 0 0 0 0 0 0
-0 0 -0 -1 0 -0 -2 -1 -3 0 0 0 -3 -2 -7 -0 -1 -4 -1 0 0 0 0 -1 -1 0 0 0 0 0 0 0 -1 -4 -1 0 0 0 0 0 0 0 0 0 0 0 0 0 0 0 0 0 0 0
-0 0 0 -1 -1 -2 -8 -7 -0 0 -5 0 -1 0 -12 -7 -3 -1 -0 0 -0 -0 -0 -1 -1 0 0 0 0 0 0 0 0 -11 0 -1 0 0 0 0 0 0 0 0 0 0 0 0 0 0 0 0 0 0
0 -0 -0 -1 -1 -0 -1 -0 -4 0 0 0 -1 -9 -6 -9 -6 -5 -1 -0 -1 0 -0 -0 0 0 -1 -1 -1 0 0 0 0 0 0 0 0 0 -16 0 0 0 0 0 0 0 0 0 0 0 0 0 0 0
-0 -0 -1 0 0 -0 0 0 -0 0 0 0 0 0 0 -0 0 0 -76 0 0 0 0 0 0 -1 -0 -1 -1 -0 0 0 0 0 0 0 0 0 0 0 0 -5 -0 0 0 0 0 0 0 0 0 0 0 0
0 0 -9 -3 -0 -20 0 0 0 -1 0 0 -0 -0 0 -1 0 0 0 0 0 0 0 0 0 0 -0 -2 0 -1 -2 0 0 0 0 0 -19 0 -4 0 0 0 -2 0 0 0 0 0 0 0 0 0 0 0
-0 0 -0 -9 -3 0 0 0 -0 -1 0 0 0 0 0 0 0 0 0 0 0 0 0 0 -1 0 -2 0 -1 0 0 0 0 0 -1 -21 0 0 0 0 0 0 0 0 0 0 0 0 0 0 0 0 0 0
0 0 -1 -0 0 -0 0 -0 -10 -7 -1 0 0 0 0 0 0 0 0 0 0 0 0 0 0 0 -1 -2 -2 0 0 0 0 -6 -6 -15 -0 0 0 0 0 -1 0 0 0 0 0 0 0 0 0 0 0 0
0 0 0 0 0 -0 0 0 0 0 0 0 0 0 0 0 0 0 0 0 0 0 0 0 0 0 0 0 0 -0 -1 -23 -17 -21 -22 0 0 0 0 0 0 -0 0 0 0 0 0 0 0 0 0 0 0 0
-1 -1 0 0 0 0 0 0 0 0 0 0 0 0 0 0 0 0 0 0 0 0 0 -1 0 0 0 0 -2 0 0 -24 0 0 0 0 -0 0 0 -0 -0 0 0 0 0 0 0 0 0 0 0 0 0 0
0 0 0 0 0 0 0 0 0 0 0 0 0 0 0 0 0 0 0 0 0 0 -1 -1 -0 -4 0 0 0 -16 -23 -20 -6 -2 0 0 0 -0 -0 0 -0 0 0 0 0 0 0 0 0 0 0 0 0 0
0 0 0 0 0 0 0 0 0 0 0 0 0 0 0 0 0 0 0 0 0 -1 0 -3 -3 -0 0 0 -19 -32 -46 -42 0 -15 0 -0 -1 -0 0 0 -0 0 0 0 0 0 0 0 0 0 0 0 0 0
0 0 0 0 0 0 0 0 -0 -0 0 0 0 0 0 0 0 0 -6 -10 -0 -2 -3 0 0 -13 0 0 0 -12 -13 0 0 -0 0 0 0 0 -0 0 -0 0 0 0 0 0 0 0 0 0 0 0 -0 -0
0 0 0 0 0 0 0 0 0 0 0 0 0 0 0 0 0 -1 -1 -1 -1 -1 0 0 0 0 0 0 0 0 0 0 0 0 0 0 0 0 0 -0 0 0 0 0 -0 0 0 0 -0 0 0 -0 0 0
0 0 0 0 0 0 0 0 0 0 0 0 0 0 0 0 -0 -0 -0 -0 -1 0 0 0 0 0 0 0 0 0 0 0 0 0 0 0 0 0 0 0 -0 -0 -0 -0 -0 0 0 0 -0 0 0 0 0 0
0 0 0 0 0 0 0 0 0 0 0 0 0 0 0 0 0 0 0 0 0 0 0 -0 0 0 0 0 0 0 0 0 0 0 0 0 0 0 0 -0 0 -0 -0 -0 0 0 0 0 0 0 0 0 0 0
0 0 0 0 0 0 0 0 0 0 0 0 0 0 0 0 0 0 0 0 0 0 0 0 0 0 0 0 0 0 0 -0 -0 0 0 -0 0 0 0 0 0 0 -1 -0 0 0 0 0 0 0 0 0 0 0
0 0 0 0 0 0 0 0 0 0 0 0 0 0 0 0 0 0 0 0 0 0 0 0 0 0 0 0 0 0 0 -0 0 0 -0 0 0 -0 -1 0 0 0 -0 -0 0 0 0 0 0 0 0 0 0 0
0 0 0 0 0 0 0 0 0 0 0 0 0 0 0 0 0 0 0 0 0 0 0 0 0 0 0 0 0 0 0 0 0 0 0 -0 -0 0 0 0 0 0 0 0 0 0 0 0 0 0 0 0 0 0
0 0 0 0 0 0 0 0 0 0 0 0 0 0 0 0 0 0 0 0 0 0 0 0 0 0 0 0 0 0 0 0 0 0 0 0 0 0 0 0 0 0 0 0 0 0 0 0 0 0 0 0 0 0
0 0 0 0 0 0 0 0 0 0 0 0 0 0 0 0 0 0 0 -0 0 0 0 0 -0 0 0 0 0 0 0 0 0 0 0 0 0 0 0 0 0 0 0 0 0 0 0 0 0 0 0 0 0 0
0 0 0 0 0 0 0 0 0 0 0 0 0 0 0 0 0 0 0 0 -0 -0 0 0 0 0 0 0 0 0 0 0 0 0 0 0 0 0 0 0 0 0 0 0 0 0 0 0 0 0 0 0 0 0
0 0 0 0 0 0 0 0 0 0 0 0 0 0 0 0 0 0 0 0 0 0 0 0 0 0 0 0 0 0 0 0 0 0 0 0 0 0 0 0 0 0 0 0 0 0 0 0 0 0 0 0 0 0
0 0 0 0 0 0 0 0 0 0 0 0 0 0 0 0 0 0 0 0 0 0 0 0 0 0 0 0 0 0 0 0 0 0 0 0 0 0 0 0 0 0 0 0 0 0 0 0 0 0 0 0 0 0
Wind_Speed
24 23 22 22 23 24 13 5 5 6 17 26 26 24 23 22 23 20 22 19 20 24 27 26 27 27 23 23 25 22 23 26 29 35 36 34 37 37 37 33 33 33 31 34 32 34 36 15 12 19 17 14 14 15
23 20 20 21 27 33 8 3 3 1 1 16 26 25 24 21 21 19 22 20 22 25 24 23 29 32 31 26 24 23 25 25 25 33 33 33 36 34 41 41 32 37 33 34 33 35 21 17 21 19 17 15 16 16
21 20 20 15 37 36 18 7 4 2 5 6 19 24 24 23 22 18 19 17 19 24 28 29 29 28 28 30 25 26 25 23 22 25 29 32 35 34 39 45 36 37 30 33 30 32 29 26 24 21 20 21 20 20
21 21 14 32 38 35 26 13 8 6 8 11 11 23 26 25 24 19 19 17 20 22 27 26 21 24 22 26 30 30 27 23 23 25 31 33 37 33 40 36 41 34 32 36 36 27 26 28 28 29 28 27 25 25
22 31 37 33 38 39 26 14 10 8 9 13 14 16 29 27 26 24 18 18 18 23 23 23 23 24 23 21 25 29 30 29 28 29 30 34 36 34 36 35 43 34 37 40 39 32 31 27 28 27 27 28 27 25
40 43 41 38 42 21 18 15 12 10 10 13 14 17 19 27 25 21 23 22 17 18 24 27 24 26 23 22 24 27 29 30 28 28 30 30 30 33 40 48 42 35 35 34 35 30 30 29 23 21 26 27 26 24
42 44 46 45 41 37 14 12 12 11 11 14 16 17 19 16 18 18 19 17 11 15 22 26 26 21 23 22 23 25 25 29 31 31 35 36 37 28 35 49 38 36 35 35 33 29 30 26 28 27 26 26 25 24
44 49 43 36 30 27 21 19 27 13 13 12 12 12 14 14 21 26 27 16 11 18 19 24 23 20 15 20 22 20 23 25 30 34 34 38 35 35 41 35 36 35 34 35 37 36 34 30 29 26 24 24 25 26
48 34 27 23 21 20 15 13 24 29 12 13 10 6 2 6 7 22 17 12 21 23 20 21 26 24 16 19 19 20 21 27 26 36 40 36 43 44 40 38 39 38 38 36 34 35 38 37 33 30 29 29 31 30
43 28 23 19 14 22 31 28 24 35 32 15 12 13 9 2 10 9 14 19 23 23 23 25 20 21 17 18 20 22 22 27 33 34 30 42 56 55 50 41 35 35 32 32 38 39 36 37 35 34 31 31 31 31
16 17 25 24 26 34 32 31 26 30 26 17 17 16 10 4 9 8 16 16 19 20 20 23 19 18 15 21 21 21 24 25 32 30 32 39 55 55 53 56 50 43 38 38 37 36 38 36 36 36 36 33 30 30
27 29 28 26 28 35 36 35 32 27 20 18 10 9 9 9 7 1 10 15 20 22 22 26 26 23 16 14 20 21 25 25 33 26 31 35 40 39 44 50 52 53 49 46 43 40 38 38 38 39 37 34 30 29
25 30 28 25 28 29 44 42 39 10 9 17 11 16 16 11 2 6 12 27 27 29 27 23 20 9 12 9 18 20 24 29 25 31 40 44 39 35 31 39 43 44 50 52 50 48 45 46 44 41 40 36 33 32
33 27 15 11 17 23 27 36 29 16 21 24 16 15 13 12 28 28 31 34 30 27 21 8 11 14 10 9 15 24 25 26 32 37 45 41 34 26 28 29 34 44 47 52 51 45 44 40 40 37 35 34 33 30
31 34 11 21 16 34 35 21 26 17 23 21 20 34 37 29 29 32 27 25 22 7 4 9 15 11 10 16 18 22 25 30 32 38 37 34 28 31 34 34 35 39 46 49 48 45 43 39 38 38 33 28 26 27
19 11 18 26 14 14 23 37 18 20 20 25 27 28 29 34 30 31 32 24 1 1 7 14 11 14 13 14 17 23 29 35 36 36 33 31 34 36 38 40 41 44 45 48 48 46 46 45 43 39 35 31 29 28
10 11 18 33 26 24 25 20 17 21 28 29 29 25 29 30 32 32 30 14 2 4 11 15 15 16 15 17 19 19 36 37 36 38 40 41 40 42 41 41 43 42 41 41 41 40 40 40 36 37 37 33 30 27
16 9 8 10 15 14 21 14 20 24 26 26 29 24 19 22 20 15 8 7 7 10 11 19 17 12 12 18 27 24 25 32 36 35 33 34 35 37 38 42 41 38 36 31 31 30 29 28 30 33 34 32 28 26
12 7 10 14 19 20 21 22 20 21 23 22 8 9 8 18 15 15 9 8 8 9 13 19 21 17 14 15 19 32 33 30 28 28 28 30 33 34 37 35 30 28 26 26 27 28 27 26 26 26 25 23 25 24
7 9 9 13 16 18 19 19 21 21 21 20 16 4 11 16 15 12 10 8 7 13 17 21 23 23 20 21 24 28 27 26 26 28 28 29 30 29 28 25 22 19 18 17 19 20 21 22 23 24 24 25 24 24
11 12 13 14 17 17 19 18 18 18 19 19 12 6 2 11 12 10 10 7 10 13 10 9 35 34 35 33 31 30 28 27 25 25 25 25 25 22 21 20 19 18 17 19 20 19 19 20 21 21 22 22 22 20
11 11 14 14 15 16 17 16 14 11 10 9 6 5 2 4 8 13 16 13 8 14 17 29 29 31 30 31 30 27 27 26 25 26 24 21 18 18 14 13 13 13 13 15 17 18 19 20 20 19 19 19 18 17
10 11 14 15 15 15 14 13 13 13 14 13 14 13 12 11 12 16 25 27 25 25 25 27 29 28 27 25 25 26 24 25 25 22 19 16 12 12 13 13 13 14 15 16 16 16 17 16 16 15 13 14 15 13
12 15 15 15 15 14 14 13 14 14 15 15 15 15 16 16 23 24 22 22 20 20 21 24 25 26 24 23 24 22 21 19 17 12 12 11 10 11 12 12 13 13 14 13 13 12 12 12 12 12 11 9 9 10
15 15 15 14 14 14 13 13 13 15 16 16 18 18 17 18 18 16 16 16 14 14 14 18 23 23 22 20 17 16 14 14 10 9 11 10 10 11 12 13 14 14 13 11 10 9 8 7 6 5 6 6 6 6
20 18 17 16 14 13 14 13 14 15 15 17 19 18 18 17 15 14 12 11 13 10 9 9 12 11 12 13 12 10 10 10 10 11 13 13 13 12 12 12 13 14 14 12 9 7 7 6 4 4 4 4 4 3
21 20 17 13 9 12 14 14 13 15 16 17 18 20 19 17 16 16 14 13 13 12 12 11 11 10 9 9 10 11 12 12 12 11 12 13 13 13 12 11 11 12 12 12 11 9 9 9 6 8 7 4 3 2
18 17 17 15 14 14 13 13 13 13 13 16 15 13 12 14 15 13 13 15 15 14 13 13 12 11 10 10 11 11 12 12 12 13 15 16 15 14 14 12 11 9 8 8 8 5 6 5 5 5 4 3 5 7
19 17 15 18 16 14 13 13 12 12 13 12 11 11 12 14 12 13 15 16 15 13 11 11 11 10 10 10 11 11 10 10 10 12 13 13 12 12 13 11 9 8 8 8 9 4 8 8 8 7 6 6 7 8
22 17 18 18 19 17 14 15 12 12 12 11 11 12 12 11 12 13 13 13 12 11 11 10 9 8 8 8 9 10 11 11 10 12 13 12 11 9 10 10 10 8 8 8 9 8 8 8 8 8 9 9 11 11
21 22 21 20 20 18 17 13 11 12 12 11 10 8 8 10 14 17 17 13 12 11 10 9 9 9 10 10 10 10 9 5 6 11 15 15 12 10 11 11 10 9 9 9 10 10 10 10 10 11 12 12 13 14
20 22 25 25 23 17 16 18 17 16 13 11 10 10 9 9 10 10 13 20 20 15 10 11 12 9 7 6 6 9 14 14 13 13 14 15 15 14 14 13 12 12 12 12 12 12 12 12 12 13 13 14 14 15
20 21 23 24 24 23 21 19 20 18 18 16 13 12 12 12 11 10 9 20 20 20 22 14 9 10 13 15 16 16 14 14 14 14 14 15 15 14 14 13 13 13 13 13 13 14 14 14 14 14 14 14 15 15
Wind_Direction
339 339 340 341 339 337 354 354 353 356 337 305 296 290 288 282 275 273 271 264 271 271 272 268 262 259 265 264 255 263 252 250 243 243 242 243 245 242 244 244 239 237 239 243 247 249 253 255 252 256 277 283 286 284
337 335 333 332 323 285 242 280 344 344 198 328 292 284 284 285 279 276 274 265 267 271 275 279 267 262 261 265 264 262 259 257 251 244 247 247 246 246 241 242 247 242 244 246 248 249 269 251 263 264 276 277 282 285
332 329 327 324 274 271 241 244 255 247 194 184 303 286 284 282 278 277 278 275 270 270 275 271 267 269 262 258 261 259 260 267 259 260 252 250 248 247 243 242 247 247 250 251 252 253 255 257 261 267 267 272 276 278
329 325 290 257 265 258 243 238 239 226 205 196 188 288 277 275 275 277 278 278 268 275 268 271 283 273 276 261 253 257 261 269 273 267 253 251 248 252 247 252 245 250 245 247 252 258 258 259 261 262 264 268 272 273
324 268 264 256 257 255 240 242 242 230 209 196 191 189 263 267 267 270 278 277 269 266 272 276 278 281 272 269 261 256 257 260 263 260 256 251 252 255 252 253 246 248 249 244 251 255 258 265 264 260 259 264 269 270
278 281 273 263 272 249 245 249 254 234 210 190 183 185 188 264 271 274 273 273 269 268 277 266 280 279 273 273 267 260 257 258 258 258 257 260 259 257 250 246 248 253 253 255 255 259 259 262 265 259 262 265 269 269
278 278 282 289 297 301 286 275 268 235 215 190 179 178 181 174 277 275 278 280 270 262 273 274 273 280 274 269 270 268 264 258 257 259 255 255 257 264 255 244 249 253 254 255 258 260 258 258 260 263 264 268 270 270
277 296 302 307 310 310 306 295 286 271 215 203 182 168 169 169 247 265 257 270 275 271 279 270 273 274 279 270 269 273 269 264 260 257 257 253 257 254 252 252 249 254 259 259 256 256 258 260 258 261 262 266 268 269
304 315 316 313 311 310 305 300 289 275 243 227 207 190 281 152 151 266 273 263 258 256 272 271 259 269 284 277 281 278 276 268 270 257 253 254 249 247 250 252 253 254 256 258 259 257 255 256 259 259 260 264 265 266
307 322 317 309 297 229 229 223 208 238 246 208 219 253 275 286 281 282 273 258 252 255 263 270 272 267 282 280 276 276 277 271 264 263 263 252 248 248 251 255 258 257 257 259 258 255 255 255 256 258 261 264 263 264
288 289 252 239 229 232 225 218 200 209 240 224 234 248 280 127 278 295 273 264 260 264 269 260 267 276 286 275 278 282 277 276 264 267 261 258 252 252 251 249 252 256 258 260 260 261 259 259 258 258 261 262 262 265
265 261 252 238 226 225 220 214 202 192 245 229 233 241 246 276 308 305 276 271 264 259 252 242 247 262 290 298 279 284 278 277 265 272 267 262 258 268 259 252 251 251 253 255 256 258 260 260 260 260 261 261 262 268
274 264 253 239 225 214 228 216 211 239 193 227 231 240 251 269 228 177 163 242 235 219 221 237 260 302 298 312 289 285 279 275 282 267 262 258 267 275 278 258 254 252 249 250 253 255 256 257 258 259 258 260 265 266
287 270 263 245 218 202 191 236 234 160 216 229 237 230 245 167 186 193 188 211 224 225 244 284 284 293 317 316 301 284 282 286 275 266 255 262 268 278 281 282 272 256 250 245 247 252 253 255 256 259 258 259 260 258
315 325 351 243 222 196 172 207 159 188 224 231 237 215 211 214 215 216 226 235 249 269 276 291 293 307 318 300 299 292 286 279 279 266 262 270 277 273 278 279 279 271 258 248 247 248 250 252 253 254 254 256 256 254
335 48 73 78 182 144 133 136 163 212 226 223 220 223 218 214 217 206 199 246 254 260 277 293 313 310 308 309 301 291 286 279 277 272 272 274 273 276 281 280 277 276 262 252 248 248 248 248 250 250 252 254 257 261
38 27 28 77 88 112 161 174 202 213 207 205 210 221 202 206 199 214 218 274 184 219 278 295 297 300 314 305 296 300 282 278 275 271 268 271 272 275 279 279 282 270 261 253 248 248 250 250 250 248 247 252 256 258
95 87 90 98 139 147 178 212 204 199 201 200 191 169 161 243 187 273 283 281 275 277 273 294 301 294 301 300 296 313 299 283 275 271 271 263 266 276 282 282 275 265 256 249 247 249 252 249 248 249 250 251 250 252
112 132 148 163 174 184 185 192 203 205 207 178 315 307 303 288 293 294 291 283 282 290 291 292 294 293 284 301 313 284 279 267 251 252 250 261 270 279 281 270 265 260 253 251 251 251 252 252 252 251 250 249 249 252
184 177 198 186 189 188 194 209 224 231 248 270 291 315 304 298 300 299 293 284 274 296 287 289 285 286 296 299 295 270 247 250 251 255 256 266 274 272 259 260 262 264 258 257 258 256 255 254 255 255 254 254 255 258
185 201 217 221 211 219 189 175 181 190 200 191 158 128 70 312 304 299 293 300 295 298 279 267 253 250 237 249 252 245 247 252 247 246 253 257 261 268 256 259 266 269 266 263 264 267 264 261 260 260 258 257 259 260
144 205 178 179 175 180 181 170 173 145 151 152 114 137 14 318 311 295 292 282 266 191 193 210 214 222 222 226 231 235 245 250 247 255 252 253 241 236 258 277 286 286 284 278 271 268 268 268 266 265 262 258 258 258
185 167 162 157 151 149 138 132 153 149 154 139 145 110 81 72 123 134 188 196 198 200 202 207 220 220 218 224 230 241 238 241 240 238 247 257 273 284 286 290 289 282 281 281 282 280 277 275 271 268 263 258 253 250
138 152 144 128 125 129 114 147 154 156 147 144 170 160 152 157 157 161 168 180 203 218 214 209 208 211 216 221 233 231 232 227 232 266 268 281 290 294 297 302 307 308 307 303 299 296 289 281 274 265 258 250 247 244
196 172 157 153 125 147 151 157 172 156 163 176 162 166 175 173 167 170 176 184 193 196 203 192 175 183 195 212 216 209 221 231 278 311 284 299 297 304 318 334 334 330 329 332 326 327 327 318 303 280 257 244 231 223
246 220 190 180 145 165 133 163 163 166 199 182 176 200 183 183 201 199 208 207 184 196 201 205 201 219 219 220 244 268 282 299 340 341 326 325 329 332 331 335 336 332 359 18 14 10 11 12 31 58 75 88 111 138
266 269 290 344 58 45 22 58 89 146 164 173 213 208 206 218 219 222 237 247 233 240 238 281 327 350 344 321 318 311 322 329 345 357 353 352 348 348 345 339 344 -0 21 36 40 39 47 50 57 67 60 45 25 11
289 292 287 308 320 331 351 11 20 18 40 234 245 276 299 290 280 276 281 272 274 302 340 327 333 348 350 346 351 5 11 23 30 34 34 26 19 16 19 16 17 13 15 19 25 13 11 34 29 22 12 326 294 288
282 286 290 288 303 319 322 334 343 350 337 358 22 4 318 299 299 285 286 288 294 310 322 332 342 353 359 359 354 354 2 22 39 46 42 39 30 8 11 14 4 3 8 14 17 345 19 17 26 18 355 340 316 309
269 278 278 282 283 291 303 304 313 301 314 334 350 18 31 12 326 317 320 321 316 317 321 331 343 349 0 15 28 26 13 16 24 43 52 46 32 12 11 13 15 3 4 7 14 4 3 1 356 347 334 324 317 313
268 262 270 273 278 283 284 296 308 298 299 305 292 313 2 8 47 86 90 25 15 18 23 26 33 37 55 58 56 53 40 331 12 39 53 52 38 25 22 16 6 1 360 1 359 357 355 344 340 341 338 334 329 324
275 265 260 262 266 276 280 276 278 280 285 291 291 295 304 312 11 351 22 125 107 68 35 58 69 58 36 19 14 41 67 67 55 49 49 49 44 38 30 21 13 12 12 9 3 358 355 353 350 347 342 338 336 334
281 275 265 260 259 260 266 271 271 270 269 271 281 280 281 286 297 306 8 136 129 108 107 78 58 64 72 78 81 79 69 62 58 52 48 46 42 36 25 18 14 12 11 8 4 2 1 1 356 354 353 349 346 341